Time,TemperatureF,DewpointF,PressureIn,WindDirection,WindDirectionDegrees,WindSpeedMPH,WindSpeedGustMPH,Humidity,HourlyPrecipIn,Conditions,Clouds,dailyrainin,SoftwareType,DateUTC
2013-08-26 00:14:00,65.0,55.0,30.22,SW,227,0.0,-999.0,71,-99.99,,,-99.99,,2013-08-26 04:14:00,
2013-08-26 00:53:00,64.0,56.0,30.21,SW,226,0.0,-999.0,74,-99.99,,,-99.99,,2013-08-26 04:53:00,
2013-08-26 01:13:00,64.0,56.0,30.21,SW,226,0.0,-999.0,74,-99.99,,,-99.99,,2013-08-26 05:13:00,
2013-08-26 01:23:00,64.0,56.0,30.21,SW,226,0.0,-999.0,75,-99.99,,,-99.99,,2013-08-26 05:23:00,
2013-08-26 01:43:00,64.0,56.0,30.20,SW,226,0.0,-999.0,76,-99.99,,,-99.99,,2013-08-26 05:43:00,
2013-08-26 01:52:00,64.0,56.0,30.21,SW,228,0.0,-999.0,76,-99.99,,,-99.99,,2013-08-26 05:52:00,
2013-08-26 02:12:00,64.0,56.0,30.20,SW,228,0.0,-999.0,75,-99.99,,,-99.99,,2013-08-26 06:12:00,
2013-08-26 02:22:00,64.0,56.0,30.20,SW,233,0.0,-999.0,75,-99.99,,,-99.99,,2013-08-26 06:22:00,
2013-08-26 02:42:00,64.0,56.0,30.19,SW,234,0.0,-999.0,74,-99.99,,,-99.99,,2013-08-26 06:42:00,
2013-08-26 02:52:00,64.0,56.0,30.18,SW,234,0.0,-999.0,74,-99.99,,,-99.99,,2013-08-26 06:52:00,
2013-08-26 03:22:00,64.0,55.0,30.17,SW,231,0.0,-999.0,73,-99.99,,,-99.99,,2013-08-26 07:22:00,
2013-08-26 03:42:00,65.0,56.0,30.17,WSW,248,0.0,-999.0,73,-99.99,,,-99.99,,2013-08-26 07:42:00,
2013-08-26 03:52:00,65.0,56.0,30.16,WSW,245,0.0,-999.0,74,-99.99,,,-99.99,,2013-08-26 07:52:00,
2013-08-26 04:12:00,64.0,56.0,30.16,WSW,245,0.0,-999.0,75,-99.99,,,-99.99,,2013-08-26 08:12:00,
2013-08-26 04:22:00,64.0,56.0,30.16,WSW,245,0.0,-999.0,75,-99.99,,,-99.99,,2013-08-26 08:22:00,
2013-08-26 04:52:00,64.0,56.0,30.16,WSW,237,0.0,-999.0,76,-99.99,,,-99.99,,2013-08-26 08:52:00,
2013-08-26 05:11:00,64.0,57.0,30.16,SW,236,0.0,-999.0,78,-99.99,,,-99.99,,2013-08-26 09:11:00,
2013-08-26 05:22:00,63.0,56.0,30.16,WSW,237,0.0,-999.0,79,-99.99,,,-99.99,,2013-08-26 09:22:00,
2013-08-26 05:54:00,63.0,57.0,30.14,WSW,238,0.0,-999.0,80,-99.99,,,-99.99,,2013-08-26 09:54:00,
2013-08-26 06:12:00,63.0,57.0,30.14,WSW,237,0.0,-999.0,80,-99.99,,,-99.99,,2013-08-26 10:12:00,
2013-08-26 06:23:00,63.0,57.0,30.14,WSW,237,0.0,-999.0,80,-99.99,,,-99.99,,2013-08-26 10:23:00,
2013-08-26 06:52:00,62.0,56.0,30.14,WSW,238,0.0,-999.0,82,-99.99,,,-99.99,,2013-08-26 10:52:00,
2013-08-26 07:12:00,62.0,57.0,30.14,WSW,238,0.0,-999.0,83,-99.99,,,-99.99,,2013-08-26 11:12:00,
2013-08-26 07:22:00,62.0,57.0,30.14,WSW,238,0.0,-999.0,84,-99.99,,,-99.99,,2013-08-26 11:22:00,
2013-08-26 07:52:00,63.0,58.0,30.13,WSW,237,0.0,-999.0,83,-99.99,,,-99.99,,2013-08-26 11:52:00,
2013-08-26 08:12:00,63.0,58.0,30.14,WSW,240,0.0,-999.0,83,-99.99,,,-99.99,,2013-08-26 12:12:00,
2013-08-26 08:22:00,63.0,58.0,30.13,WSW,240,0.0,-999.0,84,-99.99,,,-99.99,,2013-08-26 12:22:00,
2013-08-26 08:52:00,63.0,58.0,30.13,WSW,252,0.0,-999.0,84,-99.99,,,-99.99,,2013-08-26 12:52:00,
2013-08-26 09:12:00,63.0,58.0,30.11,WSW,251,0.0,-999.0,84,-99.99,,,-99.99,,2013-08-26 13:12:00,
2013-08-26 09:22:00,63.0,58.0,30.11,WSW,251,0.0,-999.0,83,-99.99,,,-99.99,,2013-08-26 13:22:00,
2013-08-26 09:42:00,64.0,58.0,30.11,WSW,251,0.0,-999.0,82,-99.99,,,-99.99,,2013-08-26 13:42:00,
2013-08-26 09:52:00,64.0,58.0,30.10,WSW,243,0.0,-999.0,81,-99.99,,,-99.99,,2013-08-26 13:52:00,
2013-08-26 10:22:00,66.0,59.0,30.10,South,173,0.0,-999.0,78,-99.99,,,-99.99,,2013-08-26 14:22:00,
2013-08-26 10:42:00,67.0,60.0,30.11,South,181,0.0,-999.0,77,-99.99,,,-99.99,,2013-08-26 14:42:00,
2013-08-26 10:52:00,67.0,60.0,30.10,South,183,0.0,-999.0,77,-99.99,,,-99.99,,2013-08-26 14:52:00,
2013-08-26 11:12:00,67.0,60.0,30.09,SW,235,0.0,-999.0,77,-99.99,,,-99.99,,2013-08-26 15:12:00,
2013-08-26 11:22:00,68.0,61.0,30.09,WSW,244,0.0,-999.0,77,-99.99,,,-99.99,,2013-08-26 15:22:00,
2013-08-26 11:47:00,68.0,61.0,30.07,SSW,203,0.0,-999.0,77,-99.99,,,-99.99,,2013-08-26 15:47:00,
2013-08-26 11:59:00,68.0,61.0,30.07,SSW,205,0.0,-999.0,78,-99.99,,,-99.99,,2013-08-26 15:59:00,
2013-08-26 12:17:00,68.0,61.0,30.06,SSW,208,0.0,-999.0,78,-99.99,,,-99.99,,2013-08-26 16:17:00,
2013-08-26 12:29:00,69.0,61.0,30.06,SSW,206,0.0,-999.0,77,-99.99,,,-99.99,,2013-08-26 16:29:00,
2013-08-26 12:59:00,68.0,62.0,30.05,SSW,211,0.0,-999.0,81,-99.99,,,-99.99,,2013-08-26 16:59:00,
2013-08-26 13:12:00,69.0,63.0,30.05,SW,215,0.0,-999.0,81,-99.99,,,-99.99,,2013-08-26 17:12:00,
2013-08-26 13:24:00,71.0,64.0,30.04,SW,218,0.0,-999.0,79,-99.99,,,-99.99,,2013-08-26 17:24:00,
2013-08-26 13:43:00,71.0,63.0,30.03,NW,315,0.0,-999.0,75,-99.99,,,-99.99,,2013-08-26 17:43:00,
2013-08-26 13:53:00,71.0,63.0,30.02,SW,225,0.0,-999.0,77,-99.99,,,-99.99,,2013-08-26 17:53:00,
2013-08-26 14:12:00,71.0,63.0,30.01,SW,230,0.0,-999.0,77,-99.99,,,-99.99,,2013-08-26 18:12:00,
2013-08-26 14:22:00,71.0,63.0,30.01,SW,236,0.0,-999.0,77,-99.99,,,-99.99,,2013-08-26 18:22:00,
2013-08-26 14:52:00,70.0,62.0,30.00,South,190,0.0,-999.0,77,-99.99,,,-99.99,,2013-08-26 18:52:00,
2013-08-26 15:11:00,70.0,64.0,29.99,SW,225,0.0,-999.0,80,-99.99,,,-99.99,,2013-08-26 19:11:00,
2013-08-26 15:22:00,70.0,64.0,29.99,SW,225,0.0,-999.0,81,-99.99,,,-99.99,,2013-08-26 19:22:00,
2013-08-26 15:42:00,69.0,64.0,29.98,SW,224,0.0,-999.0,84,-99.99,,,-99.99,,2013-08-26 19:42:00,
2013-08-26 15:52:00,69.0,64.0,29.98,SW,224,0.0,-999.0,85,-99.99,,,-99.99,,2013-08-26 19:52:00,
2013-08-26 16:11:00,68.0,64.0,29.98,SW,221,0.0,-999.0,86,-99.99,,,-99.99,,2013-08-26 20:11:00,
2013-08-26 16:22:00,69.0,64.0,29.97,SW,222,0.0,-999.0,85,-99.99,,,-99.99,,2013-08-26 20:22:00,
2013-08-26 16:43:00,69.0,64.0,29.97,SW,222,0.0,-999.0,85,-99.99,,,-99.99,,2013-08-26 20:43:00,
2013-08-26 16:52:00,69.0,64.0,29.97,SW,222,0.0,-999.0,84,-99.99,,,-99.99,,2013-08-26 20:52:00,
2013-08-26 17:22:00,69.0,64.0,29.96,SW,222,0.0,-999.0,85,-99.99,,,-99.99,,2013-08-26 21:22:00,
2013-08-26 17:55:00,69.0,65.0,29.96,SW,222,0.0,-999.0,86,-99.99,,,-99.99,,2013-08-26 21:55:00,
2013-08-26 18:16:00,69.0,65.0,29.96,SW,222,0.0,-999.0,86,-99.99,,,-99.99,,2013-08-26 22:16:00,
2013-08-26 18:26:00,69.0,65.0,29.95,SW,222,0.0,-999.0,87,-99.99,,,-99.99,,2013-08-26 22:26:00,
2013-08-26 18:53:00,69.0,66.0,29.94,SW,222,0.0,-999.0,89,-99.99,,,-99.99,,2013-08-26 22:53:00,
2013-08-26 19:22:00,69.0,66.0,29.95,SW,222,0.0,-999.0,90,-99.99,,,-99.99,,2013-08-26 23:22:00,
2013-08-26 19:52:00,68.0,65.0,29.95,SW,222,0.0,-999.0,91,-99.99,,,-99.99,,2013-08-26 23:52:00,
2013-08-26 20:22:00,68.0,66.0,29.94,SW,222,0.0,-999.0,92,-99.99,,,-99.99,,2013-08-27 00:22:00,
2013-08-26 20:42:00,68.0,66.0,29.94,SW,222,0.0,-999.0,92,-99.99,,,-99.99,,2013-08-27 00:42:00,
2013-08-26 20:52:00,68.0,66.0,29.94,SW,222,0.0,-999.0,93,-99.99,,,-99.99,,2013-08-27 00:52:00,
2013-08-26 21:12:00,68.0,66.0,29.94,SW,222,0.0,-999.0,93,-99.99,,,-99.99,,2013-08-27 01:12:00,
2013-08-26 21:22:00,68.0,66.0,29.94,SW,222,0.0,-999.0,93,-99.99,,,-99.99,,2013-08-27 01:22:00,
2013-08-26 21:52:00,68.0,66.0,29.94,SW,222,0.0,-999.0,93,-99.99,,,-99.99,,2013-08-27 01:52:00,
2013-08-26 22:22:00,67.0,65.0,29.94,SW,222,0.0,-999.0,93,-99.99,,,-99.99,,2013-08-27 02:22:00,
2013-08-26 22:42:00,67.0,65.0,29.93,SW,222,0.0,-999.0,94,-99.99,,,-99.99,,2013-08-27 02:42:00,
2013-08-26 22:52:00,67.0,65.0,29.93,SW,222,0.0,-999.0,94,-99.99,,,-99.99,,2013-08-27 02:52:00,
2013-08-26 23:23:00,67.0,65.0,29.91,SW,222,0.0,-999.0,94,-99.99,,,-99.99,,2013-08-27 03:23:00,
2013-08-26 23:44:00,67.0,65.0,29.91,SW,222,0.0,-999.0,94,-99.99,,,-99.99,,2013-08-27 03:44:00,
2013-08-26 23:58:00,67.0,65.0,29.91,SW,222,0.0,-999.0,94,-99.99,,,-99.99,,2013-08-27 03:58:00,